Terminal Aerodrome Forecast
Issued by NWS

Home | Current Version | Previous Version | Text Only | Print | Product List | Glossary On
Versions: 1 2 3 4 5 6 7 8 9 10 11 12
000
FTUS44 KTSA 050520
TAFMLC
TAF
KMLC 050520Z 0506/0606 VRB03KT P6SM BKN100
     FM051600 20008G15KT P6SM SCT250 PROB30 0600/0606 -TSRA
      BKN050CB=

USA.gov is the U.S. government's official web portal to all federal, state and local government web resources and services.